Visibility
15.0 15.0 15.0 15.0 15.0 15.0 15.0 15.0 15.0 15.0 15.0 15.0 15.0 15.0 15.0 15.0 15.0 15.0 15.0 15.0 15.0 15.0 15.0 15.0 15.0 15.0 15.0 15.0 15.0 15.0 15.0 15.0 15.0 15.0 15.0 15.0 15.0 14.1
15.0 15.0 15.0 15.0 15.0 15.0 15.0 15.0 15.0 15.0 15.0 15.0 15.0 15.0 15.0 15.0 15.0 15.0 15.0 15.0 15.0 15.0 15.0 15.0 15.0 15.0 15.0 15.0 15.0 15.0 15.0 15.0 15.0 15.0 15.0 15.0 15.0 8.1
15.0 15.0 15.0 15.0 15.0 15.0 15.0 15.0 15.0 15.0 15.0 15.0 15.0 15.0 15.0 15.0 15.0 15.0 15.0 15.0 15.0 15.0 15.0 15.0 15.0 15.0 15.0 15.0 15.0 15.0 15.0 15.0 15.0 15.0 15.0 15.0 11.8 10.7
15.0 15.0 15.0 15.0 15.0 15.0 15.0 15.0 15.0 15.0 15.0 15.0 15.0 15.0 15.0 15.0 15.0 15.0 15.0 15.0 15.0 15.0 15.0 15.0 15.0 15.0 15.0 15.0 15.0 15.0 15.0 15.0 15.0 10.2 11.5 7.2 8.1 7.9
15.0 15.0 15.0 15.0 15.0 15.0 15.0 15.0 15.0 15.0 15.0 5.5 15.0 15.0 15.0 15.0 15.0 15.0 15.0 15.0 15.0 15.0 15.0 15.0 15.0 15.0 15.0 15.0 15.0 15.0 15.0 14.6 6.3 12.0 15.0 8.6 15.0 15.0
15.0 15.0 15.0 15.0 15.0 15.0 15.0 15.0 15.0 15.0 15.0 15.0 14.1 2.4 15.0 12.0 4.7 6.1 15.0 15.0 15.0 15.0 15.0 15.0 15.0 15.0 15.0 15.0 15.0 15.0 15.0 15.0 15.0 15.0 14.4 14.9 15.0 15.0
15.0 15.0 15.0 15.0 15.0 15.0 15.0 15.0 15.0 15.0 1.9 0.2 0.2 7.4 4.2 15.0 15.0 15.0 15.0 15.0 15.0 15.0 15.0 15.0 15.0 15.0 15.0 15.0 15.0 15.0 15.0 15.0 13.1 10.2 8.4 15.0 15.0 15.0
15.0 15.0 15.0 15.0 15.0 15.0 15.0 15.0 15.0 2.6 4.3 0.1 1.7 8.1 15.0 15.0 14.8 15.0 15.0 14.8 0.3 15.0 15.0 15.0 15.0 15.0 15.0 15.0 13.0 13.5 3.5 15.0 15.0 15.0 15.0 15.0 15.0 15.0
15.0 15.0 15.0 15.0 15.0 15.0 15.0 9.0 1.5 0.8 6.4 15.0 15.0 15.0 6.9 3.6 6.3 7.1 0.3 0.2 1.7 15.0 14.7 12.9 15.0 14.5 15.0 15.0 15.0 12.2 12.1 11.5 15.0 15.0 15.0 13.9 15.0 15.0
15.0 15.0 15.0 15.0 15.0 15.0 15.0 4.0 3.3 15.0 15.0 15.0 15.0 9.3 3.4 10.3 11.9 11.3 15.0 15.0 9.1 15.0 15.0 0.4 11.1 14.6 15.0 15.0 9.4 14.4 15.0 11.7 2.4 0.1 5.3 9.9 13.8 12.3
15.0 15.0 15.0 15.0 5.9 2.8 3.4 0.3 14.6 15.0 15.0 15.0 2.4 7.6 15.0 15.0 15.0 15.0 0.3 0.2 0.8 13.9 15.0 14.1 3.2 15.0 15.0 15.0 15.0 15.0 0.8 11.2 14.0 15.0 13.9 15.0 15.0 15.0
15.0 15.0 15.0 15.0 15.0 1.5 6.0 13.5 11.6 15.0 9.0 1.9 15.0 15.0 15.0 15.0 15.0 15.0 6.2 0.1 0.3 0.3 15.0 3.6 1.3 1.3 0.2 15.0 15.0 15.0 1.8 15.0 14.7 5.6 14.8 15.0 15.0 15.0
12.8 13.6 15.0 15.0 1.3 3.5 13.4 12.6 15.0 12.0 12.3 15.0 15.0 15.0 15.0 15.0 15.0 13.6 11.6 0.1 0.1 0.1 15.0 1.9 0.1 0.6 0.2 0.5 15.0 0.9 14.5 15.0 0.3 0.1 0.0 0.0 5.0 15.0
12.3 15.0 15.0 1.9 15.0 15.0 12.3 15.0 9.2 15.0 15.0 15.0 15.0 8.2 12.3 10.5 15.0 15.0 15.0 15.0 2.3 0.1 0.3 0.1 0.1 0.1 0.1 0.1 2.0 15.0 15.0 1.1 0.1 0.0 0.0 1.9 12.4 15.0
15.0 12.9 1.6 14.7 15.0 15.0 15.0 15.0 15.0 15.0 15.0 0.5 0.5 2.9 2.5 3.6 5.4 3.0 13.3 14.4 13.4 4.3 0.2 0.1 0.1 0.1 2.5 2.0 1.4 3.1 0.5 3.1 0.0 0.0 0.0 0.2 0.1 13.4
5.2 1.2 15.0 15.0 15.0 15.0 15.0 15.0 15.0 15.0 9.2 0.2 0.2 0.4 1.2 0.7 0.5 0.4 0.1 0.8 0.1 0.6 15.0 3.3 1.0 0.8 0.7 14.2 0.1 0.6 0.4 0.1 0.1 0.0 0.0 0.0 0.3 14.3
2.8 15.0 15.0 15.0 15.0 15.0 15.0 15.0 15.0 13.7 0.2 0.2 0.1 0.2 0.7 0.9 1.6 4.1 0.2 0.2 0.1 0.1 0.2 5.3 15.0 9.8 12.7 0.3 0.4 0.3 0.1 0.1 0.0 0.0 0.0 0.0 0.0 0.1
15.0 15.0 15.0 15.0 15.0 14.1 15.0 13.8 14.8 1.4 0.2 0.2 0.3 0.3 0.2 0.1 0.2 4.1 12.2 8.2 5.0 4.0 0.2 0.1 1.1 15.0 1.8 1.1 6.4 0.1 0.1 0.1 0.1 0.0 0.0 0.0 0.0 0.0
15.0 15.0 11.9 9.5 11.5 15.0 3.9 0.3 0.1 0.2 0.1 0.2 0.1 0.1 0.1 0.4 1.1 0.2 0.1 0.2 1.5 0.4 0.5 0.1 0.1 0.2 0.3 0.1 0.1 0.0 0.1 0.1 0.1 0.0 0.0 0.0 0.0 0.0
15.0 6.1 6.1 14.9 15.0 0.6 0.2 0.1 0.2 0.3 0.7 0.6 1.1 0.8 0.2 0.2 0.1 0.2 0.1 0.1 0.1 0.3 0.3 0.4 0.3 0.1 0.1 0.1 0.1 0.0 0.0 0.1 0.2 0.1 0.0 0.0 0.0 0.1
8.6 12.5 15.0 15.0 0.4 0.2 0.2 0.1 0.2 0.5 1.6 0.3 0.3 0.2 0.3 0.2 0.4 0.2 0.2 0.5 0.2 0.2 0.5 1.7 13.0 3.2 0.1 0.4 0.1 0.1 0.1 0.0 0.1 0.1 0.2 3.1 0.0 0.0
14.9 15.0 15.0 4.2 0.3 0.1 0.1 0.2 0.4 2.3 0.5 0.3 0.3 0.5 0.7 0.2 0.1 0.3 0.4 0.2 0.2 0.1 0.1 9.0 15.0 13.0 0.2 0.2 0.1 0.1 0.1 0.1 0.0 0.0 3.6 12.5 5.9 0.1
15.0 9.1 14.8 0.6 0.2 0.2 0.3 0.5 0.9 1.7 0.9 0.3 0.3 0.2 0.1 0.1 0.5 1.7 0.2 0.2 0.3 0.2 0.3 2.1 15.0 15.0 8.2 0.1 0.1 0.1 0.1 0.1 0.1 12.6 15.0 0.1 0.1 0.0